Regional Weather Roundup
Issued by NWS State College, PA

Home | Current Version | Previous Version | Text Only | Print | Product List | Glossary On
Versions: 1 2 3 4 5 6 7 8 9 10 11 12 13 14 15 16 17 18 19 20 21 22 23 24 25 26 27 28 29 30 31 32 33 34 35 36 37 38 39 40 41 42 43 44 45 46 47 48 49 50
000
ASUS41 KCTP 210710
RWRCTP

REGIONAL WEATHER ROUNDUP
NATIONAL WEATHER SERVICE STATE COLLEGE PA
200 AM EST SAT JAN 21 2017

Note: "fair" indicates few or no clouds below 12,000 feet with no
significant weather and/or obstructions to visibility.

* = STATION THAT DOES NOT REPORT PRECIPITATION /E.G. RAIN...SNOW...ETC/
    THUNDER OR FOG.

PAZ002>004-007>009-013>016-020>023-029>032-210800-
WESTERN PENNSYLVANIA

CITY           SKY/WX    TMP DP  RH WIND       PRES   REMARKS
ERIE           CLOUDY    46  45  96 SE3       29.80F FOG
MEADVILLE      FOG       48  47  96 CALM      29.80S VSB 1/4
FRANKLIN*        N/A     46  45  93 CALM      29.83R
NEW CASTLE     FOG       40  40 100 CALM      29.82S VSB 1/4
BEAVER COUNTY  NOT AVBL
BUTLER*          N/A     43  39  87 CALM      29.85S VSB 1/4
PITTSBURGH INT PTCLDY    42  42 100 CALM      29.81S
PITTSBURGH     CLEAR     49  46  90 S8        29.81S
INDIANA*       FOG       41  41 100 CALM      29.86R VSB 0
LATROBE        FOG       43  43 100 CALM      29.85R VSB 1/4
WASHINGTON CO* CLOUDY    37  36  93 CALM      29.82S VSB 1/4
$$

PAZ004>006-010>012-017>019-024>028-033>037-041-042-045-046-049>053-210800-
CENTRAL PENNSYLVANIA

CITY           SKY/WX    TMP DP  RH WIND       PRES   REMARKS
BRADFORD       FOG       47  47 100 VRB5      29.81R VSB 1/2
DUBOIS         FOG       47  45  93 SW3       29.82R VSB 1/4
CLEARFIELD     FOG       39  39 100 CALM      29.85R VSB 1/4
JOHNSTOWN      CLOUDY    49  48  97 W7        29.83R
ALTOONA        FOG       36  35  96 E3        29.86R VSB 1/4
STATE COLLEGE  FOG       39  39 100 SW5       29.86R VSB 1/4
WILLIAMSPORT   FOG       39  38  96 CALM      29.89R VSB 1/4
SELINSGROVE    FOG       39  39 100 CALM      29.90R VSB 1/4
FT INDIANTOWN  FOG       38  38 100 CALM      29.91R VSB 1/2
CAPITAL CITY   FOG       40  38  93 CALM      29.91R VSB 1/4
HARRISBURG     FOG       40  40 100 CALM      29.91R VSB 3/4
YORK           FOG       42  42 100 CALM      29.89S VSB 1/4
$$

PAZ038>040-043-044-047-048-054-055-060>062-067>071-210800-
EASTERN PENNSYLVANIA

CITY           SKY/WX    TMP DP  RH WIND       PRES   REMARKS
SCRANTON       CLOUDY    39  39 100 CALM      29.88R FOG
MOUNT POCONO   FOG       35  34  96 W6        29.85S VSB 1/2
ALLENTOWN      FOG       39  37  92 N3        29.91S VSB 1/2
QUAKERTOWN*    CLOUDY    39  39 100 CALM      29.92R VSB 1/2
READING        FOG       39  39 100 CALM      29.91R VSB 3/4
LANCASTER      FOG       41  41 100 E3        29.91R VSB 1/4
COATESVILLE    FOG       41  41 100 CALM      29.91F VSB<1/4
POTTSTOWN      FOG       39  39 100 CALM      29.93R VSB 1/2
BLUE BELL      CLOUDY    39  39 100 CALM      29.92R VSB 3/4
DOYLESTOWN     FOG       41  40  96 CALM      29.91S VSB 1
WILLOW GROVE   NOT AVBL
NORTH PHILA    CLOUDY    42  41  96 CALM      29.94S FOG
PHILADELPHIA   CLOUDY    42  41  96 CALM      29.94S FOG
$$



USA.gov is the U.S. government's official web portal to all federal, state and local government web resources and services.